SP8NFE-1 Weather Reports


Display with metric or nautical units.
time (UTC)temp
F
wind
direction
speed
MPH
gust
MPH
rain 1hr
in
rain 24hr
in
rain mn
in
humidity
%
barometer
mb
20260904093659 69 180 5.0 8.0 0.00 0.51 0.00 70
20260904093159 68 180 7.0 10.0 0.00 0.51 0.00 75
20260904092659 69 180 0.0 5.0 0.00 0.51 0.00 74
20260904092159 68 180 2.0 9.0 0.00 0.51 0.00 73
20260904091659 68 180 4.0 5.0 0.00 0.51 0.00 77
20260904091159 68 180 3.0 7.0 0.00 0.51 0.00 75
20260904090715 68 180 1.0 4.0 0.00 0.51 0.00 78
20260904090159 68 180 2.0 4.0 0.00 0.51 0.00 78
20260904085659 68 180 0.0 4.0 0.00 0.51 0.00 81
20260904085201 68 180 1.0 6.0 0.00 0.51 0.00 80
20260904084659 67 180 0.0 4.0 0.00 0.51 0.51 81
20260904084159 66 180 0.0 5.0 0.00 0.51 0.51 86
20260904083659 66 180 0.0 5.0 0.00 0.51 0.51 87
20260904083159 65 180 0.0 3.0 0.00 0.51 0.51 88
20260904082659 65 180 0.0 3.0 0.00 0.51 0.51 92
20260904082159 65 180 0.0 2.0 0.00 0.51 0.51 92
20260904081659 64 180 2.0 2.0 0.00 0.51 0.51 93
20260904081159 64 180 0.0 1.0 0.00 0.51 0.51 94
20260904080659 64 180 0.0 1.0 0.00 0.51 0.51 94
20260904080159 63 180 0.0 3.0 0.00 0.51 0.51 95
20260904075659 63 180 0.0 0.0 0.00 0.51 0.51 95
20260904075159 63 180 0.0 0.0 0.00 0.51 0.51 96
20260904074659 62 180 0.0 0.0 0.00 0.51 0.51 95
20260904074159 62 180 0.0 0.0 0.00 0.51 0.51 96
20260904073659 62 180 0.0 0.0 0.00 0.51 0.51 97
20260904073159 62 180 0.0 0.0 0.00 0.51 0.51 97
20260904072659 61 180 0.0 0.0 0.00 0.51 0.51 98
20260904072200 61 180 0.0 0.0 0.00 0.51 0.51 98
20260904071700 61 180 0.0 0.0 0.00 0.51 0.51 100
20260904071200 60 180 0.0 0.0 0.00 0.51 0.51 100
20260904070700 60 180 0.0 0.0 0.00 0.51 0.51 100
20260904070200 60 180 0.0 0.0 0.00 0.51 0.51 100
20260904065700 60 180 0.0 0.0 0.00 0.51 0.51 100
20260904065200 59 180 0.0 0.0 0.00 0.51 0.51 100
20260904064815 59 180 0.0 0.0 0.00 0.51 0.51 100
20260904064200 59 180 0.0 0.0 0.00 0.51 0.51 100
20260904063700 59 180 0.0 0.0 0.00 0.51 0.51 100
20260904063200 58 180 0.0 0.0 0.00 0.51 0.51 100
20260904062700 58 180 0.0 0.0 0.00 0.51 0.51 100
20260904062200 58 180 0.0 0.0 0.00 0.51 0.51 100
20260904061700 58 180 0.0 0.0 0.00 0.51 0.51 100
20260904061200 57 180 0.0 0.0 0.00 0.51 0.51 100
20260904060700 57 180 0.0 0.0 0.00 0.51 0.51 100
20260904060200 57 180 0.0 0.0 0.00 0.51 0.51 100
20260904055700 57 180 0.0 0.0 0.00 0.51 0.51 100
20260904055200 56 180 0.0 0.0 0.00 0.51 0.51 100
20260904054700 56 180 0.0 0.0 0.00 0.53 0.51 100
20260904054200 56 180 0.0 0.0 0.00 0.53 0.51 100
20260904053700 56 180 0.0 0.0 0.00 0.53 0.51 100
20260904053204 56 180 0.0 0.0 0.00 0.53 0.51 100
20260904052700 55 180 0.0 0.0 0.00 0.53 0.51 100
20260904052200 55 180 0.0 0.0 0.00 0.53 0.51 100
20260904051700 54 180 0.0 0.0 0.00 0.53 0.51 100
20260904051200 54 180 0.0 0.0 0.00 0.53 0.51 100
20260904050700 54 180 0.0 0.0 0.00 0.53 0.51 100
20260904050200 54 180 0.0 0.0 0.00 0.53 0.51 100
20260904045700 53 180 0.0 0.0 0.00 0.53 0.51 100
20260904045200 53 180 0.0 0.0 0.00 0.53 0.51 100
20260904044700 53 180 0.0 0.0 0.00 0.56 0.51 100
20260904044200 53 180 0.0 0.0 0.00 0.56 0.51 100
20260904043700 53 180 0.0 0.0 0.00 0.56 0.51 100
20260904042700 52 180 0.0 0.0 0.00 0.56 0.51 100
20260904042200 52 180 0.0 0.0 0.00 0.56 0.51 100
20260904041700 52 180 0.0 0.0 0.00 0.56 0.51 100
20260904041200 52 180 0.0 0.0 0.00 0.56 0.51 100
20260904040700 52 180 0.0 0.0 0.00 0.56 0.51 100
20260904040200 52 180 0.0 0.0 0.00 0.56 0.51 100
20260904035200 51 180 0.0 0.0 0.00 0.56 0.51 100
20260904034700 51 180 0.0 0.0 0.00 0.56 0.51 100
20260904034200 51 180 0.0 0.0 0.00 0.56 0.51 100
20260904033700 51 180 0.0 0.0 0.00 0.56 0.51 100
20260904033200 50 180 0.0 0.0 0.00 0.56 0.51 100
20260904032700 50 180 0.0 0.0 0.00 0.56 0.51 100
20260904032200 50 180 0.0 0.0 0.00 0.56 0.51 100
20260904031700 50 180 0.0 0.0 0.00 0.56 0.51 100
20260904031200 50 180 0.0 0.0 0.00 0.56 0.51 100
20260904030700 50 180 0.0 0.0 0.00 0.56 0.51 100
20260904030200 50 180 0.0 0.0 0.00 0.56 0.51 100
20260904025700 50 180 0.0 0.0 0.00 0.56 0.51 100
20260904025200 50 180 0.0 0.0 0.00 0.56 0.51 100
20260904024700 50 180 0.0 0.0 0.00 0.56 0.51 100
20260904024200 50 180 0.0 0.0 0.00 0.56 0.51 100
20260904023700 50 180 0.0 0.0 0.00 0.56 0.51 100
20260904023200 50 180 0.0 0.0 0.00 0.56 0.51 100
20260904022700 50 180 0.0 0.0 0.00 0.56 0.51 100
20260904022200 50 180 0.0 0.0 0.00 0.56 0.51 100
20260904021700 50 180 0.0 0.0 0.00 0.56 0.51 100
20260904021200 50 180 0.0 0.0 0.00 0.56 0.51 100
20260904020700 50 180 0.0 0.0 0.00 0.56 0.51 100
20260904020200 50 180 0.0 0.0 0.00 0.56 0.51 100
20260904015700 50 180 0.0 0.0 0.00 0.56 0.51 100
20260904015200 50 180 0.0 0.0 0.00 0.56 0.51 100
20260904014700 50 180 0.0 0.0 0.00 0.56 0.51 100
20260904014200 51 180 0.0 0.0 0.00 0.56 0.51 100
20260904013700 50 180 0.0 0.0 0.00 0.56 0.51 100
20260904013200 50 180 0.0 0.0 0.00 0.56 0.51 100
20260904012700 51 180 0.0 0.0 0.00 0.56 0.51 100
20260904012200 51 180 0.0 0.0 0.00 0.56 0.51 100
20260904011700 51 180 0.0 0.0 0.00 0.56 0.51 100
20260904011200 51 180 0.0 0.0 0.00 0.56 0.51 100
20260904010701 51 180 0.0 0.0 0.00 0.56 0.51 100
20260904010201 51 180 0.0 0.0 0.00 0.56 0.51 100
20260904005701 51 180 0.0 0.0 0.00 0.56 0.51 100
20260904005203 51 180 0.0 0.0 0.00 0.56 0.51 100
20260904004701 51 180 0.0 0.0 0.00 0.56 0.51 100
20260904004201 51 180 0.0 0.0 0.00 0.56 0.51 100
20260904003701 52 180 0.0 0.0 0.00 0.56 0.51 100
20260904003201 52 180 0.0 0.0 0.00 0.56 0.51 100
20260904002701 52 180 0.0 0.0 0.00 0.56 0.51 100
20260904002203 51 180 0.0 0.0 0.00 0.56 0.51 100
20260904001701 52 180 0.0 0.0 0.00 0.56 0.51 100
20260904001201 52 180 0.0 0.0 0.00 0.56 0.51 100
20260904000702 52 180 0.0 0.0 0.00 0.56 0.51 100
20260904000201 52 180 0.0 0.0 0.00 0.56 0.51 100
20260903235701 52 180 0.0 0.0 0.00 0.56 0.51 100
20260903235201 52 180 0.0 0.0 0.00 0.56 0.51 100
20260903234701 52 180 0.0 0.0 0.00 0.56 0.51 100
20260903234203 52 180 0.0 0.0 0.00 0.56 0.51 100
20260903233701 52 180 0.0 0.0 0.00 0.56 0.51 100
20260903233201 52 180 0.0 0.0 0.00 0.56 0.51 100
20260903232701 52 180 0.0 0.0 0.00 0.56 0.51 100
20260903232204 52 180 0.0 0.0 0.00 0.56 0.51 100
20260903231701 53 180 0.0 0.0 0.00 0.56 0.51 100
20260903231201 53 180 0.0 0.0 0.00 0.56 0.51 100
20260903230703 53 180 0.0 0.0 0.00 0.56 0.51 100
20260903230201 53 180 0.0 0.0 0.00 0.56 0.51 100
20260903225701 53 180 0.0 0.0 0.00 0.56 0.51 100
20260903225201 53 180 0.0 0.0 0.00 0.56 0.51 100
20260903224701 53 180 0.0 0.0 0.00 0.56 0.51 100
20260903224201 53 180 0.0 0.0 0.00 0.56 0.51 100
20260903223701 53 180 0.0 0.0 0.00 0.56 0.51 100
20260903223201 54 180 0.0 0.0 0.00 0.56 0.51 100
20260903222701 54 180 0.0 0.0 0.00 0.56 0.51 100
20260903222201 54 180 0.0 0.0 0.00 0.56 0.51 100
20260903221701 54 180 0.0 0.0 0.00 0.56 0.51 100
20260903221201 54 180 0.0 0.0 0.00 0.56 0.51 100
20260903220701 54 180 0.0 0.0 0.00 0.56 0.51 100
20260903220201 54 180 0.0 0.0 0.00 0.56 0.51 100
20260903215701 54 180 0.0 0.0 0.00 0.56 0.51 100
20260903215201 55 180 0.0 0.0 0.00 0.56 0.51 100
20260903214701 55 180 0.0 0.0 0.00 0.56 0.51 100
20260903214201 54 180 0.0 0.0 0.00 0.56 0.51 100
20260903213701 55 180 0.0 0.0 0.00 0.56 0.51 100
20260903213201 55 180 0.0 0.0 0.00 0.56 0.51 100
20260903212701 55 180 0.0 0.0 0.00 0.56 0.51 100
20260903212203 55 180 0.0 0.0 0.00 0.56 0.51 100
20260903211705 55 180 0.0 0.0 0.00 0.56 0.51 100
20260903211201 56 180 0.0 0.0 0.00 0.56 0.51 100
20260903210701 55 180 0.0 0.0 0.00 0.56 0.51 100
20260903210201 56 180 0.0 0.0 0.00 0.56 0.51 100
20260903205701 56 180 0.0 0.0 0.00 0.56 0.51 100
20260903205201 56 180 0.0 0.0 0.00 0.56 0.51 100
20260903204701 56 180 0.0 0.0 0.00 0.56 0.51 100
20260903204201 57 180 0.0 0.0 0.00 0.56 0.51 100
20260903203701 57 180 0.0 0.0 0.00 0.56 0.51 100
20260903203201 57 180 0.0 0.0 0.00 0.56 0.51 100
20260903202701 57 180 0.0 0.0 0.00 0.56 0.51 100
20260903202201 57 180 0.0 0.0 0.00 0.56 0.51 100
20260903201701 57 180 0.0 0.0 0.00 0.56 0.51 100
20260903201201 57 180 0.0 0.0 0.00 0.56 0.51 100
20260903200701 57 180 0.0 0.0 0.00 0.56 0.51 100
20260903200201 57 180 0.0 0.0 0.00 0.56 0.51 100
20260903195701 57 180 0.0 0.0 0.00 0.56 0.51 100
20260903195201 57 180 0.0 0.0 0.00 0.56 0.51 100
20260903194701 57 180 0.0 0.0 0.00 0.56 0.51 100
20260903194201 57 180 0.0 0.0 0.00 0.56 0.51 100
20260903193701 57 180 0.0 0.0 0.00 0.56 0.51 100
20260903193201 57 180 0.0 0.0 0.00 0.56 0.51 100
20260903192701 57 180 0.0 0.0 0.00 0.56 0.51 100
20260903192203 57 180 0.0 0.0 0.00 0.56 0.51 100
20260903191701 57 180 0.0 0.0 0.00 0.56 0.51 100
20260903191201 57 180 0.0 0.0 0.00 0.56 0.51 100
20260903190701 57 180 0.0 0.0 0.00 0.56 0.51 100
20260903190201 57 180 0.0 0.0 0.00 0.56 0.51 100
20260903185701 57 180 0.0 0.0 0.00 0.56 0.51 100
20260903185201 57 180 0.0 0.0 0.00 0.56 0.51 100
20260903184701 57 180 0.0 0.0 0.00 0.56 0.51 100
20260903184203 57 180 0.0 0.0 0.00 0.56 0.51 100
20260903183701 57 180 0.0 0.0 0.00 0.56 0.51 100
20260903183201 58 180 0.0 0.0 0.00 0.56 0.51 100
20260903182702 58 180 0.0 0.0 0.00 0.56 0.51 100
20260903182204 58 180 0.0 0.0 0.00 0.56 0.51 100
20260903181701 58 180 0.0 0.0 0.00 0.56 0.51 100
20260903181202 58 180 0.0 0.0 0.00 0.56 0.51 100
20260903180702 59 180 0.0 0.0 0.00 0.56 0.51 100
20260903180202 59 180 0.0 0.0 0.00 0.56 0.51 100
20260903175702 59 180 0.0 0.0 0.00 0.56 0.51 100
20260903175202 59 180 0.0 0.0 0.00 0.56 0.51 100
20260903174702 60 180 0.0 0.0 0.00 0.56 0.51 100
20260903174202 60 180 0.0 0.0 0.00 0.56 0.51 100
20260903173702 60 180 0.0 0.0 0.00 0.56 0.51 100
20260903173202 61 180 0.0 0.0 0.00 0.56 0.51 100
20260903172702 61 180 0.0 0.0 0.00 0.56 0.51 99
20260903172202 61 180 0.0 0.0 0.00 0.56 0.51 99
20260903171702 62 180 0.0 0.0 0.00 0.56 0.51 98
20260903171202 63 180 0.0 0.0 0.00 0.56 0.51 98
20260903170702 63 180 0.0 0.0 0.00 0.56 0.51 97
20260903170202 63 180 0.0 0.0 0.00 0.56 0.51 97
20260903165702 64 180 0.0 0.0 0.00 0.56 0.51 96
20260903165202 65 180 0.0 0.0 0.00 0.56 0.51 95
20260903164702 65 180 0.0 0.0 0.00 0.56 0.51 94
20260903164202 66 180 0.0 0.0 0.00 0.56 0.51 93
20260903163702 66 180 0.0 0.0 0.00 0.56 0.51 91
20260903163202 66 180 0.0 0.0 0.00 0.56 0.51 90
20260903162702 67 180 0.0 0.0 0.00 0.56 0.51 90
20260903162204 67 180 0.0 0.0 0.00 0.56 0.51 89
20260903161702 67 180 0.0 0.0 0.00 0.56 0.51 87
20260903161202 67 180 0.0 0.0 0.00 0.56 0.51 86
20260903160702 68 180 0.0 0.0 0.00 0.56 0.51 84
20260903160202 68 180 0.0 0.0 0.00 0.56 0.51 82
20260903155702 69 180 0.0 0.0 0.00 0.56 0.51 81
20260903155202 69 180 0.0 0.0 0.00 0.56 0.51 78
20260903154702 70 180 0.0 0.0 0.00 0.56 0.51 75
20260903154202 71 180 0.0 0.0 0.00 0.56 0.51 73
20260903153702 71 180 0.0 0.0 0.00 0.56 0.51 70
20260903153202 71 180 0.0 0.0 0.00 0.56 0.51 66
20260903152702 71 180 0.0 2.0 0.00 0.56 0.51 58
20260903152202 72 180 0.0 0.0 0.00 0.56 0.51 59
20260903151702 72 180 0.0 1.0 0.00 0.56 0.51 57
20260903151202 72 180 0.0 3.0 0.00 0.56 0.51 53
20260903150702 73 180 0.0 3.0 0.00 0.56 0.51 51
20260903150202 73 180 0.0 3.0 0.00 0.56 0.51 50
20260903145702 73 180 2.0 3.0 0.00 0.56 0.51 50
20260903145202 73 180 0.0 3.0 0.00 0.56 0.51 52
20260903144702 72 180 0.0 3.0 0.00 0.56 0.51 55
20260903144202 72 180 1.0 5.0 0.00 0.56 0.51 53
20260903143702 72 180 5.0 6.0 0.00 0.56 0.51 54
20260903143202 73 180 0.0 5.0 0.00 0.56 0.51 54
20260903142202 73 180 7.0 7.0 0.00 0.56 0.51 52
20260903141702 74 180 0.0 4.0 0.00 0.56 0.51 53
20260903141202 74 180 0.0 3.0 0.00 0.56 0.51 52
20260903140702 73 180 0.0 3.0 0.00 0.56 0.51 54
20260903140202 73 180 0.0 2.0 0.00 0.56 0.51 51
20260903135702 73 180 0.0 6.0 0.00 0.56 0.51 52
20260903135202 73 180 3.0 8.0 0.00 0.56 0.51 53
20260903134702 72 180 4.0 8.0 0.00 0.56 0.51 54
20260903134202 72 180 4.0 8.0 0.00 0.56 0.51 53
20260903133702 72 180 3.0 6.0 0.00 0.56 0.51 55
20260903133202 73 180 0.0 5.0 0.00 0.56 0.51 53
20260903132702 72 180 4.0 7.0 0.00 0.56 0.51 53
20260903132202 73 180 3.0 6.0 0.00 0.56 0.51 52
20260903131702 73 180 3.0 7.0 0.00 0.56 0.51 50
20260903131202 73 180 1.0 9.0 0.00 0.56 0.51 51
20260903130702 73 180 3.0 5.0 0.00 0.56 0.51 51
20260903130202 72 180 0.0 3.0 0.00 0.56 0.51 54
20260903125702 72 180 2.0 5.0 0.00 0.56 0.51 56
20260903125202 72 180 2.0 2.0 0.34 0.56 0.51 63
20260903124702 72 180 0.0 3.0 0.51 0.56 0.51 59
20260903124202 72 180 1.0 4.0 0.51 0.56 0.51 100
20260903123702 72 180 0.0 1.0 0.51 0.56 0.51 61
20260903123202 71 180 0.0 3.0 0.51 0.56 0.51 67
20260903122702 71 180 0.0 5.0 0.51 0.56 0.51 64
20260903122202 72 180 0.0 3.0 0.51 0.56 0.51 63
20260903121702 71 180 0.0 0.0 0.51 0.56 0.51 65
20260903121202 71 180 0.0 4.0 0.51 0.56 0.51 66
20260903120702 71 180 3.0 6.0 0.51 0.56 0.51 100
20260903120202 71 180 1.0 5.0 0.51 0.56 0.51 65
20260903115702 72 180 3.0 6.0 0.51 0.56 0.51 66
20260903115203 71 180 0.0 4.0 0.17 0.22 0.17 70
20260903114703 71 180 0.0 7.0 0.00 0.05 0.00 70
20260903114202 71 180 4.0 4.0 0.00 0.05 0.00 68
20260903113703 71 180 0.0 3.0 0.00 0.05 0.00 73
20260903113203 71 180 0.0 0.0 0.00 0.05 0.00 67
20260903112703 70 180 0.0 3.0 0.00 0.05 0.00 67
20260903112203 70 180 2.0 7.0 0.00 0.05 0.00 100
20260903111703 69 180 0.0 5.0 0.00 0.05 0.00 67
20260903111203 69 180 0.0 5.0 0.00 0.05 0.00 65
20260903110703 70 180 1.0 3.0 0.00 0.05 0.00 72
20260903110203 69 180 0.0 0.0 0.00 0.05 0.00 72
20260903105703 68 180 0.0 4.0 0.00 0.05 0.00 85
20260903105203 68 180 0.0 3.0 0.00 0.05 0.00 84
20260903104703 67 180 0.0 0.0 0.00 0.05 0.00 88
20260903104205 67 180 0.0 0.0 0.00 0.05 0.00 94
20260903102203 65 180 0.0 4.0 0.00 0.05 0.00 97
20260903101703 65 180 0.0 2.0 0.00 0.05 0.00 97
20260903101203 65 180 0.0 0.0 0.00 0.05 0.00 97
20260903100703 64 180 0.0 0.0 0.00 0.05 0.00 98
20260903100203 64 180 0.0 0.0 0.00 0.05 0.00 98
20260903095703 64 180 0.0 0.0 0.00 0.05 0.00 98
20260903095203 64 180 0.0 0.0 0.00 0.05 0.00 98
20260903094709 63 180 0.0 0.0 0.00 0.05 0.00 99
20260903094203 63 180 0.0 0.0 0.00 0.05 0.00 100